Location: Alafon
(8.4500°N, 4.2333°E)
Time: 00:40:04
(UTC+00:00)

deb Explorer IX - Pass Details

Date: 30 July 2021
Orbit: 545 x 1092 km, 38.8° (Epoch: 16 September)

Event Time Altitude Azimuth Distance (km) Brightness Sun altitude
Rises 10:59:29 0° 247° (WSW) 2,720 ? 74.3°
Reaches altitude 10° 11:01:47 10° 256° (WSW) 1,861 ? 74.7°
Maximum altitude 11:05:42 35° 323° (NW) 974 ? 75.4°
Drops below altitude 10° 11:10:02 10° 30° (NNE) 2,070 ? 76.2°
Sets 11:12:44 0° 39° (NE) 3,076 ? 76.6°
